Stations météo

réclame
Mon MeteoGroup
Deauville, France (7031): Température de l'air & dewpoint: 17.10.2018 07:00:00 - 23.10.2018 07:00:00 (CEST)Deauville, France (7031): Température de l'air 5cm: 17.10.2018 07:00:00 - 23.10.2018 07:00:00 (CEST)Deauville, France (7031): Vitesse du vent & gusts: 17.10.2018 07:00:00 - 23.10.2018 07:00:00 (CEST)Deauville, France (7031): Direction du vent: 17.10.2018 07:00:00 - 23.10.2018 07:00:00 (CEST)Deauville, France (7031): reduced air pressure: 17.10.2018 07:00:00 - 23.10.2018 07:00:00 (CEST)Deauville, France (7031): visibility: 17.10.2018 07:00:00 - 23.10.2018 07:00:00 (CEST)Deauville, France (7031): Quantités de précipitations: 17.10.2018 07:00:00 - 23.10.2018 07:00:00 (CEST)
Date & Time tt [°C] td [°C] tt 5cm [°C] ff [km/h] ff [knt] fx [km/h] fx [knt] dd ppp [hPa] vv [km] rr [mm]
23.10.2018 07:00:00 5,5 5,5 -0,3 6 3 7 4 WSW 1035,7 20 0,0
23.10.2018 06:00:00 4,8 4,7 -0,8 3 2 6 3 WSW 1035,6 15 0,0
23.10.2018 05:00:00 4,6 4,2 -0,8 4 2 6 3 SW 1036,1 4,2 0,0
23.10.2018 04:00:00 5,2 4,6 -0,1 5 3 7 4 SSW 1036,6 5 0,0
23.10.2018 03:00:00 5,7 5,0 -0,9 3 1 11 6 N 1037,4 39 0,0
23.10.2018 02:00:00 5,9 4,9 -0,8 4 2 8 4 N 1037,6 20 0,0
23.10.2018 01:00:00 8,2 5,7 1,7 5 3 17 9 NE 1037,4 48 0,0
23.10.2018 00:00:00 9,0 5,9 4,6 8 5 22 12 N 1037,6 46 0,0
22.10.2018 23:00:00 10,4 6,9 5,9 9 5 23 12 NNE 1037,5 47 0,0
22.10.2018 22:00:00 10,2 6,5 6,2 14 8 23 12 NNE 1037,4 46 0,0
22.10.2018 21:00:00 10,0 6,5 5,7 11 6 20 11 NNE 1036,9 44 0,0
22.10.2018 20:00:00 11,2 6,7 9,0 15 8 35 19 NNE 1036,6 44 0,0
22.10.2018 19:00:00 11,5 7,0 9,7 15 8 42 23 N 1036,2 45 0,0
22.10.2018 18:00:00 12,3 7,4 12,5 15 8 39 21 NNE 1035,8 42 0,0
22.10.2018 17:00:00 13,4 7,2 16,3 19 10 43 23 NNE 1035,2 45 0,0
22.10.2018 16:00:00 13,3 7,3 16,4 24 13 40 21 NNE 1035,2 24 0,0
22.10.2018 15:00:00 13,9 8,7 16,5 22 12 37 20 NNE 1035,0 19 0,0
22.10.2018 14:00:00 13,2 9,6 12,9 18 10 37 20 NE 1034,7 20 0,0
22.10.2018 13:00:00 12,3 10,4 12,0 18 10 41 22 NNE 1035,2 20 0,0
22.10.2018 12:00:00 12,2 10,6 11,8 18 10 40 22 NNE 1034,7 43 0,0
22.10.2018 11:00:00 12,0 10,9 12,0 20 11 40 22 NNE 1034,1 40 0,0
22.10.2018 10:00:00 12,3 11,7 12,2 20 11 38 20 NNE 1033,5 7 0,0
22.10.2018 09:00:00 12,6 12,0 12,3 19 10 41 22 NNE 1032,5 6 0,0
22.10.2018 08:00:00 13,0 11,9 12,4 19 11 43 23 NNE 1031,3 19 0,0
22.10.2018 07:00:00 13,6 13,1 12,6 19 10 40 22 NNE 1030,6 10 0,2
22.10.2018 06:00:00 13,2 12,7 10,1 10 5 21 11 NNE 1030,0 6 0,0
22.10.2018 05:00:00 12,4 11,9 9,5 14 7 23 12 NNE 1029,8 7 0,0
22.10.2018 04:00:00 12,6 12,4 9,5 11 6 18 10 N 1029,4 4,7 0,0
22.10.2018 03:00:00 12,4 12,1 6,6 8 4 17 9 N 1029,3 3,0 0,2
22.10.2018 02:00:00 11,7 11,4 5,8 5 3 12 7 N 1029,2 1,0 0,0
22.10.2018 01:00:00 11,9 11,6 5,4 6 3 11 6 N 1029,0 3,4 0,0
22.10.2018 00:00:00 12,3 11,8 8,3 5 3 12 6 N 1028,8 3,6 0,0
21.10.2018 23:00:00 12,1 11,3 7,9 6 4 14 8 NNW 1028,3 6 0,0
21.10.2018 22:00:00 12,7 10,6 10,3 6 4 11 6 NNW 1027,8 12 0,0
21.10.2018 21:00:00 12,8 11,2 9,8 7 4 15 8 NNW 1028,1 13 0,0
21.10.2018 20:00:00 12,4 10,6 7,5 5 3 10 5 N 1027,8 12 0,0
21.10.2018 19:00:00 13,2 10,7 10,0 5 3 18 10 N 1027,6 10 0,0
21.10.2018 18:00:00 15,3 10,7 15,6 11 6 18 10 N 1027,3 15 0,0
21.10.2018 17:00:00 16,1 11,3 17,9 8 4 18 10 NNW 1027,3 18 0,0
21.10.2018 16:00:00 16,3 11,0 19,3 9 5 22 12 NW 1027,9 17 0,0
21.10.2018 15:00:00 16,2 8,9 20,5 9 5 18 10 NNW 1028,2 8 0,0
21.10.2018 14:00:00 16,4 7,1 21,7 11 6 18 10 N 1028,2 19 0,0
21.10.2018 13:00:00 15,9 6,0 18,2 9 5 15 8 ENE 1028,5 34 0,0
21.10.2018 12:00:00 14,2 7,7 15,0 6 4 12 6 NE 1028,9 14 0,0
21.10.2018 11:00:00 12,7 8,0 10,9 5 3 10 6 ENE 1029,3 7 0,0
21.10.2018 10:00:00 10,2 9,4 3,0 2 1 5 3 ESE 1029,4 5 0,0
21.10.2018 09:00:00 7,0 6,7 1,3 2 1 6 4 NE 1029,3 2,0 0,0
21.10.2018 08:00:00 7,0 6,6 1,2 3 2 5 3 E 1028,9 4,7 0,0
21.10.2018 07:00:00 7,1 6,8 1,1 3 1 6 4 SE 1029,2 6 0,0
21.10.2018 06:00:00 7,2 6,9 1,2 4 2 7 4 E 1029,7 6 0,0
21.10.2018 05:00:00 7,3 6,7 1,4 3 2 9 5 E 1030,0 3,2 0,0
21.10.2018 04:00:00 7,3 6,9 1,6 4 2 7 4 E 1030,4 5 0,0
21.10.2018 03:00:00 7,4 6,7 2,5 3 2 12 6 ESE 1030,7 2,6 0,0
21.10.2018 02:00:00 8,7 7,9 1,0 8 5 14 8 E 1031,3 7 0,0
21.10.2018 01:00:00 8,5 7,9 0,8 7 4 11 6 ESE 1031,4 1,6 0,2
21.10.2018 00:00:00 8,8 7,9 1,4 7 4 13 7 ENE 1031,5 7 0,0
20.10.2018 23:00:00 9,0 7,8 2,1 5 3 14 7 ENE 1031,3 8 0,0
20.10.2018 22:00:00 9,6 8,7 1,4 5 3 13 7 NE 1031,3 13 0,0
20.10.2018 21:00:00 9,2 8,3 1,6 3 1 10 6 NNE 1031,4 3,6 0,0
20.10.2018 20:00:00 10,2 9,0 3,1 8 4 12 6 N 1031,1 32 0,0
20.10.2018 19:00:00 12,5 9,1 8,2 2 1 10 6 NNE 1030,4 10 0,0
20.10.2018 18:00:00 15,8 8,5 18,3 5 3 13 7 NE 1030,4 60 0,0
20.10.2018 17:00:00 16,2 8,2 21,3 9 5 16 9 NNE 1030,6 53 0,0
20.10.2018 16:00:00 16,5 8,5 23,6 8 4 18 10 NE 1030,9 37 0,0
20.10.2018 15:00:00 15,8 8,8 22,8 9 5 25 14 NE 1031,4 24 0,0
20.10.2018 14:00:00 15,4 8,6 20,6 14 8 26 14 E 1032,1 31 0,0
20.10.2018 13:00:00 14,4 8,1 17,5 14 8 28 15 ENE 1032,4 20 0,0
20.10.2018 12:00:00 13,4 7,2 14,5 12 7 27 15 ENE 1032,3 25 0,0
20.10.2018 11:00:00 12,5 7,4 8,8 13 7 26 14 ENE 1032,4 37 0,0
20.10.2018 10:00:00 10,3 7,0 0,2 7 4 17 9 NE 1032,2 20 0,0
20.10.2018 09:00:00 7,1 6,5 -0,7 6 3 11 6 ENE 1031,4 20 0,0
20.10.2018 08:00:00 6,1 5,1 -0,7 4 2 8 4 ENE 1031,1 18 0,0
20.10.2018 07:00:00 6,7 5,0 -0,3 5 3 11 6 NE 1030,4 46 0,0
20.10.2018 06:00:00 7,4 5,0 0,4 7 4 13 7 ENE 1030,0 45 0,0
20.10.2018 05:00:00 8,0 5,1 1,3 6 3 16 9 NE 1029,7 39 0,0
20.10.2018 04:00:00 8,7 5,6 2,7 8 5 19 10 NE 1029,4 32 0,0
20.10.2018 03:00:00 9,1 6,0 2,7 8 5 17 9 NE 1029,1 34 0,0
20.10.2018 02:00:00 8,9 7,0 3,1 6 3 13 7 NE 1029,2 18 0,2
20.10.2018 01:00:00 10,0 8,3 4,9 6 3 20 11 NE 1028,7 17 0,0
20.10.2018 00:00:00 9,6 8,8 1,9 8 4 13 7 NNE 1028,7 12 0,0
19.10.2018 23:00:00 9,0 8,4 2,3 5 3 9 5 NNE 1028,4 0,9 0,0
19.10.2018 22:00:00 10,4 9,0 4,5 6 3 14 8 NNE 1028,0 10 0,0
19.10.2018 21:00:00 10,7 9,6 4,6 8 4 13 7 NNE 1027,5 9 0,0
19.10.2018 20:00:00 11,9 9,6 6,7 7 4 22 12 NNE 1026,6 12 0,0
19.10.2018 19:00:00 13,3 9,9 10,9 14 7 23 13 NNE 1026,1 16 0,0
19.10.2018 18:00:00 14,9 9,5 15,9 16 8 27 15 NNE 1025,6 23 0,0
19.10.2018 17:00:00 16,2 9,8 19,8 14 8 24 13 N 1025,0 20 0,0
19.10.2018 16:00:00 16,1 10,2 18,5 13 7 23 13 N 1024,7 19 0,0
19.10.2018 15:00:00 16,1 10,4 19,4 13 7 28 15 NNE 1024,9 15 0,0
19.10.2018 14:00:00 15,4 10,8 19,6 14 7 26 14 NE 1024,9 9 0,0
19.10.2018 13:00:00 14,5 10,3 16,5 13 7 27 14 NE 1025,4 7 0,0
19.10.2018 12:00:00 12,8 10,0 13,0 14 7 25 13 NNE 1025,7 6 0,0
19.10.2018 11:00:00 11,6 9,3 10,3 13 7 26 14 NE 1025,3 6 0,0
19.10.2018 10:00:00 10,5 9,1 3,9 10 5 20 11 NE 1024,8 7 0,0
19.10.2018 09:00:00 8,0 7,7 1,5 5 3 10 5 NNE 1024,6 2,8 0,0
19.10.2018 08:00:00 7,6 7,0 1,8 4 2 12 6 N 1024,3 0,2 0,0
19.10.2018 07:00:00 8,6 7,8 4,3 7 4 13 7 NNE 1024,1 6 0,0
19.10.2018 06:00:00 9,1 8,3 4,4 7 4 14 8 NNE 1024,0 8 0,2
19.10.2018 05:00:00 9,1 8,2 4,5 7 4 14 8 NNE 1024,0 8 0,0
19.10.2018 04:00:00 9,4 8,3 4,8 9 5 16 8 NNE 1024,0 12 0,0
19.10.2018 03:00:00 9,9 8,7 5,2 7 4 17 9 NE 1024,1 16 0,0
19.10.2018 02:00:00 10,2 8,8 5,2 9 5 17 9 NE 1024,2 20 0,0
19.10.2018 01:00:00 10,6 8,9 6,9 8 5 20 11 NE 1024,6 27 0,0
19.10.2018 00:00:00 11,2 9,5 7,2 9 5 23 12 NE 1024,6 28 0,0
18.10.2018 23:00:00 11,7 9,6 8,3 11 6 26 14 NE 1024,6 31 0,0
18.10.2018 22:00:00 12,2 9,9 8,9 13 7 25 13 NNE 1024,3 33 0,0
18.10.2018 21:00:00 12,8 10,3 9,2 11 6 23 12 NE 1024,0 33 0,0
18.10.2018 20:00:00 13,4 10,6 10,4 13 7 28 15 NNE 1023,8 48 0,0
18.10.2018 19:00:00 14,6 11,0 12,1 12 7 28 15 NNE 1023,2 30 0,0
18.10.2018 18:00:00 16,0 10,5 16,7 13 7 40 22 NE 1022,8 35 0,0
18.10.2018 17:00:00 16,6 11,3 18,6 16 8 38 20 NNE 1022,9 18 0,0
18.10.2018 16:00:00 17,0 10,6 22,5 18 10 39 21 NE 1023,0 26 0,0
18.10.2018 15:00:00 17,3 10,7 20,6 17 9 37 20 ENE 1023,3 60 0,0
18.10.2018 14:00:00 15,8 10,8 18,7 19 10 40 21 NE 1023,9 37 0,0
18.10.2018 13:00:00 14,8 10,8 18,4 14 8 38 21 NE 1024,3 44 0,0
18.10.2018 12:00:00 15,0 11,2 18,3 13 7 43 23 NE 1024,4 45 0,0
18.10.2018 11:00:00 15,9 11,5 16,2 14 7 32 18 ENE 1023,8 41 0,0
18.10.2018 10:00:00 14,2 10,8 12,3 10 6 24 13 ENE 1023,6 30 0,0
18.10.2018 09:00:00 12,9 10,8 11,4 10 5 23 13 NE 1023,6 20 0,0
18.10.2018 08:00:00 12,7 10,9 11,4 10 5 23 13 NE 1023,3 20 0,0
18.10.2018 07:00:00 12,8 10,9 11,5 10 6 25 13 NE 1023,1 16 0,0
18.10.2018 06:00:00 13,0 10,9 11,6 11 6 27 15 NE 1022,8 15 0,0
18.10.2018 05:00:00 13,2 10,6 11,6 13 7 27 15 NE 1022,8 20 0,0
18.10.2018 04:00:00 13,5 10,7 11,9 10 6 20 11 NNE 1022,7 31 0,0
18.10.2018 03:00:00 13,7 10,9 12,1 11 6 22 12 NE 1022,4 32 0,0
18.10.2018 02:00:00 13,8 11,7 12,2 10 6 21 12 NE 1022,2 18 0,0
18.10.2018 01:00:00 13,8 12,0 12,4 9 5 20 11 NE 1022,1 15 0,0
18.10.2018 00:00:00 13,9 11,9 12,4 10 5 22 12 NE 1022,0 22 0,0
17.10.2018 23:00:00 13,8 11,8 12,4 8 4 20 11 NE 1021,9 21 0,0
17.10.2018 22:00:00 14,0 11,7 12,7 9 5 23 12 NNE 1021,7 24 0,0
17.10.2018 21:00:00 14,4 11,7 13,0 10 6 19 11 NE 1021,0 22 0,0
17.10.2018 20:00:00 15,1 11,9 13,4 8 5 15 8 NNE 1020,2 18 0,0
17.10.2018 19:00:00 15,5 12,3 14,3 8 4 14 8 NNE 1019,6 14 0,0
17.10.2018 18:00:00 15,9 12,6 16,5 7 4 14 8 N 1018,9 11 0,0
17.10.2018 17:00:00 17,0 13,3 20,5 10 5 16 9 N 1018,9 10 0,0
17.10.2018 16:00:00 16,8 13,5 20,0 11 6 19 10 N 1019,0 15 0,0
17.10.2018 15:00:00 16,2 13,7 18,8 10 5 18 10 N 1018,9 10 0,0
17.10.2018 14:00:00 17,5 11,7 20,9 9 5 17 9 S 1019,3 20 0,0
17.10.2018 13:00:00 17,0 13,1 21,1 9 5 21 12 SSE 1019,9 13 0,0
17.10.2018 12:00:00 15,2 13,7 15,5 4 2 10 5 SE 1019,9 9 0,0
17.10.2018 11:00:00 12,5 12,3 13,4 5 3 11 6 S 1020,1 1,6 0,0
17.10.2018 10:00:00 11,7 11,7 6,7 2 1 7 4 S 1020,0 0,2 0,0
17.10.2018 09:00:00 9,2 9,1 6,8 4 2 8 4 S 1019,8 0,1 0,0
17.10.2018 08:00:00 9,3 9,2 4,5 5 3 8 5 S 1019,8 0,2 0,0
17.10.2018 07:00:00 8,3 8,0 3,9 4 2 8 4 SSE 1019,7 0,1 0,0

tt = Température de l'air
td = dewpoint
tt 5cm = Température de l'air 5cm
ff = Vitesse du vent
fx = gusts
dd = Direction du vent
ppp = reduced air pressure
vv = visibility
rr = Quantités de précipitations

stations d'obs. à proximité